CW0927 Weather Reports


Display with metric or nautical units.
time (UTC)temp
F
wind
direction
speed
MPH
gust
MPH
rain 1hr
in
rain 24hr
in
rain mn
in
humidity
%
barometer
mb
20260506134343 79 98 1.0 9.0 0.00 0.00 0.00 75 1018.9
20260506133844 79 136 1.0 4.0 0.00 0.00 0.00 77 1019.0
20260506133344 78 121 1.0 8.0 0.00 0.00 0.00 78 1018.9
20260506132842 77 128 3.0 8.0 0.00 0.00 0.00 78 1018.9
20260506132341 77 208 4.0 10.0 0.00 0.00 0.00 79 1019.0
20260506131825 77 125 5.0 10.0 0.00 0.00 0.00 79 1018.9
20260506131354 76 89 2.0 10.0 0.00 0.00 0.00 80 1019.1
20260506130834 76 128 2.0 8.0 0.00 0.00 0.00 81 1019.0
20260506130403 75 134 2.0 8.0 0.00 0.00 0.00 82 1019.1
20260506125831 74 128 2.0 4.0 0.00 0.00 0.00 84 1018.9
20260506125330 72 121 0.0 0.0 0.00 0.00 0.00 86 1018.9
20260506124828 71 121 0.0 0.0 0.00 0.00 0.00 85 1018.8
20260506124356 70 121 0.0 0.0 0.00 0.00 0.00 85 1018.8
20260506123833 69 121 0.0 0.0 0.00 0.00 0.00 86 1018.7
20260506123405 68 121 0.0 0.0 0.00 0.00 0.00 87 1018.7
20260506122826 68 121 0.0 0.0 0.00 0.00 0.00 87 1018.7
20260506122329 67 121 0.0 0.0 0.00 0.00 0.00 87 1018.6
20260506121830 67 121 0.0 0.0 0.00 0.00 0.00 87 1018.6
20260506121400 66 121 0.0 0.0 0.00 0.00 0.00 88 1018.5
20260506120838 66 121 0.0 0.0 0.00 0.00 0.00 89 1018.5
20260506120338 65 121 0.0 0.0 0.00 0.00 0.00 89 1018.5
20260506115838 65 121 0.0 0.0 0.00 0.00 0.00 90 1018.5
20260506115340 64 121 0.0 0.0 0.00 0.00 0.00 90 1018.5
20260506114823 64 121 0.0 0.0 0.00 0.00 0.00 91 1018.5
20260506114325 63 121 0.0 0.0 0.00 0.00 0.00 92 1018.5
20260506113827 62 121 0.0 0.0 0.00 0.00 0.00 92 1018.4
20260506113355 61 121 0.0 0.0 0.00 0.00 0.00 91 1018.5
20260506112904 61 121 0.0 0.0 0.00 0.00 0.00 91 1018.4
20260506112341 61 121 0.0 0.0 0.00 0.00 0.00 90 1018.3
20260506111842 61 121 0.0 0.0 0.00 0.00 0.00 90 1018.2
20260506111324 60 121 0.0 0.0 0.00 0.00 0.00 90 1018.3
20260506110827 61 121 0.0 0.0 0.00 0.00 0.00 90 1018.2
20260506110331 61 121 0.0 0.0 0.00 0.00 0.00 90 1018.2
20260506105830 61 121 0.0 0.0 0.00 0.00 0.00 90 1018.1
20260506105330 61 121 0.0 0.0 0.00 0.00 0.00 90 1017.9
20260506104829 61 121 0.0 0.0 0.00 0.00 0.00 90 1017.8
20260506104357 61 121 0.0 0.0 0.00 0.00 0.00 90 1017.8
20260506103903 61 121 0.0 0.0 0.00 0.00 0.00 90 1017.8
20260506103343 61 121 0.0 0.0 0.00 0.00 0.00 90 1017.7
20260506102846 61 121 0.0 0.0 0.00 0.00 0.00 90 1017.6
20260506102326 61 121 0.0 0.0 0.00 0.00 0.00 90 1017.6
20260506101828 61 121 0.0 0.0 0.00 0.00 0.00 89 1017.6
20260506101330 61 121 0.0 0.0 0.00 0.00 0.00 89 1017.6
20260506100829 61 121 0.0 0.0 0.00 0.00 0.00 89 1017.6
20260506100325 61 121 0.0 0.0 0.00 0.00 0.00 89 1017.6
20260506095827 61 121 0.0 0.0 0.00 0.00 0.00 89 1017.6
20260506095327 61 121 0.0 0.0 0.00 0.00 0.00 89 1017.7
20260506094828 61 121 0.0 0.0 0.00 0.00 0.00 89 1017.8
20260506094330 61 121 0.0 0.0 0.00 0.00 0.00 89 1017.8
20260506093900 61 121 0.0 0.0 0.00 0.00 0.00 89 1017.9
20260506093342 61 121 0.0 0.0 0.00 0.00 0.00 89 1017.7
20260506092845 61 121 0.0 0.0 0.00 0.00 0.00 89 1017.6
20260506092344 61 121 0.0 0.0 0.00 0.00 0.00 89 1017.6
20260506091846 61 121 0.0 0.0 0.00 0.00 0.00 89 1017.6
20260506091327 61 121 0.0 0.0 0.00 0.00 0.00 89 1017.5
20260506090827 61 121 0.0 0.0 0.00 0.00 0.00 89 1017.5
20260506090354 61 121 0.0 0.0 0.00 0.00 0.00 88 1017.4
20260506085843 61 121 0.0 0.0 0.00 0.00 0.00 88 1017.4
20260506085323 61 121 0.0 0.0 0.00 0.00 0.00 88 1017.3
20260506084824 61 121 0.0 0.0 0.00 0.00 0.00 88 1017.3
20260506084329 61 121 0.0 0.0 0.00 0.00 0.00 88 1017.4
20260506083831 61 121 0.0 0.0 0.00 0.00 0.00 87 1017.3
20260506083334 61 121 0.0 0.0 0.00 0.00 0.00 87 1017.3
20260506082833 61 121 0.0 0.0 0.00 0.00 0.00 87 1017.4
20260506082335 61 121 0.0 0.0 0.00 0.00 0.00 87 1017.4
20260506081837 61 121 0.0 0.0 0.00 0.00 0.00 87 1017.4
20260506081339 61 121 0.0 0.0 0.00 0.00 0.00 87 1017.4
20260506080840 61 121 0.0 0.0 0.00 0.00 0.00 87 1017.4
20260506080323 61 121 0.0 0.0 0.00 0.00 0.00 87 1017.5
20260506073358 62 121 0.0 0.0 0.00 0.00 0.00 86 1017.7
20260506072839 62 121 0.0 0.0 0.00 0.00 0.00 86 1017.7
20260506072338 62 121 0.0 0.0 0.00 0.00 0.00 85 1017.6
20260506071839 63 121 0.0 0.0 0.00 0.00 0.00 85 1017.6
20260506071341 63 121 0.0 0.0 0.00 0.00 0.00 85 1017.6
20260506070839 63 121 0.0 0.0 0.00 0.00 0.00 84 1017.5
20260506070334 63 121 0.0 0.0 0.00 0.00 0.00 84 1017.5
20260506062331 65 121 0.0 0.0 0.00 0.00 0.00 82 1018.2
20260506061900 65 121 0.0 0.0 0.00 0.00 0.00 82 1018.3
20260506061335 65 121 0.0 0.0 0.00 0.00 0.00 81 1018.3
20260506060844 65 121 0.0 0.0 0.00 0.00 0.00 81 1018.2
20260506060346 65 121 0.0 0.0 0.00 0.00 0.00 80 1018.2
20260506051340 67 121 0.0 0.0 0.00 0.00 0.00 76 1018.4
20260506050841 67 121 0.0 0.0 0.00 0.00 0.00 76 1018.5
20260506050342 67 121 0.0 0.0 0.00 0.00 0.00 76 1018.6
20260506044906 68 121 0.0 0.0 0.00 0.00 0.00 76 1018.8
20260506044325 68 121 0.0 0.0 0.00 0.00 0.00 75 1018.8
20260506043824 68 121 0.0 1.0 0.00 0.00 0.00 75 1018.8
20260506043326 68 121 0.0 0.0 0.00 0.00 0.00 75 1018.8
20260506042825 68 121 0.0 0.0 0.00 0.00 0.00 74 1018.8
20260506042326 69 121 0.0 0.0 0.00 0.00 0.00 74 1018.8
20260506041910 69 121 0.0 0.0 0.00 0.00 0.00 73 1018.8
20260506041354 69 121 0.0 0.0 0.00 0.00 0.00 73 1018.7
20260506040850 69 121 0.0 0.0 0.00 0.00 0.00 73 1018.7
20260506040329 69 121 0.0 0.0 0.00 0.00 0.00 72 1018.5
20260506035851 69 121 0.0 1.0 0.00 0.00 0.00 73 1018.5
20260506035350 69 121 0.0 1.0 0.00 0.00 0.00 72 1018.5
20260506034832 70 121 0.0 1.0 0.00 0.00 0.00 71 1018.5
20260506034334 70 121 0.0 1.0 0.00 0.00 0.00 71 1018.5
20260506033835 70 121 0.0 0.0 0.00 0.00 0.00 70 1018.4
20260506033340 70 121 0.0 0.0 0.00 0.00 0.00 69 1018.4
20260506032839 70 121 0.0 0.0 0.00 0.00 0.00 69 1018.4
20260506032343 70 121 0.0 1.0 0.00 0.00 0.00 69 1018.4
20260506031824 70 121 0.0 1.0 0.00 0.00 0.00 69 1018.4
20260506031325 71 121 0.0 1.0 0.00 0.00 0.00 69 1018.3
20260506030855 71 121 0.0 1.0 0.00 0.00 0.00 69 1018.3
20260506030404 71 121 0.0 1.0 0.00 0.00 0.00 69 1018.3
20260506025844 71 121 0.0 2.0 0.00 0.00 0.00 68 1018.3
20260506025343 71 121 1.0 2.0 0.00 0.00 0.00 68 1018.3
20260506024843 71 105 0.0 0.0 0.00 0.00 0.00 67 1018.2
20260506024343 71 105 0.0 0.0 0.00 0.00 0.00 67 1018.2
20260506023824 71 105 0.0 0.0 0.00 0.00 0.00 67 1018.2
20260506023350 72 105 0.0 1.0 0.00 0.00 0.00 67 1018.1
20260506022829 72 105 0.0 1.0 0.00 0.00 0.00 66 1018.1
20260506022331 72 105 0.0 1.0 0.00 0.00 0.00 65 1018.1
20260506021902 72 105 0.0 1.0 0.00 0.00 0.00 64 1018.1
20260506021343 73 105 0.0 0.0 0.00 0.00 0.00 64 1018.1
20260506020846 73 105 0.0 1.0 0.00 0.00 0.00 63 1018.0
20260506020349 73 105 0.0 1.0 0.00 0.00 0.00 63 1018.1
20260506015828 73 105 0.0 1.0 0.00 0.00 0.00 63 1017.9
20260506015328 73 105 0.0 1.0 0.00 0.00 0.00 63 1017.9
20260506014830 73 112 0.0 2.0 0.00 0.00 0.00 63 1017.9
20260506014402 73 83 1.0 2.0 0.00 0.00 0.00 62 1017.9
20260506013905 74 84 0.0 3.0 0.00 0.00 0.00 62 1017.7
20260506013348 74 103 1.0 5.0 0.00 0.00 0.00 61 1017.8
20260506012826 74 77 1.0 5.0 0.00 0.00 0.00 61 1017.7
20260506012330 74 78 1.0 4.0 0.00 0.00 0.00 61 1017.7
20260506011900 74 71 2.0 5.0 0.00 0.00 0.00 61 1017.8
20260506011341 74 74 2.0 5.0 0.00 0.00 0.00 61 1017.7
20260506010825 75 83 2.0 6.0 0.00 0.00 0.00 61 1017.6
20260506010328 75 91 2.0 6.0 0.00 0.00 0.00 61 1017.6
20260506005829 75 71 2.0 6.0 0.00 0.00 0.00 61 1017.5
20260506005338 75 92 2.0 6.0 0.00 0.00 0.00 60 1017.5
20260506004841 75 77 2.0 8.0 0.00 0.00 0.00 59 1017.4
20260506004323 75 88 2.0 7.0 0.00 0.00 0.00 59 1017.3
20260506003849 75 81 2.0 8.0 0.00 0.00 0.00 58 1017.3
20260506003354 76 73 2.0 8.0 0.00 0.00 0.00 57 1017.1
20260506002834 76 79 2.0 8.0 0.00 0.00 0.00 57 1017.1
20260506002337 76 84 3.0 8.0 0.00 0.00 0.00 56 1017.0
20260506001836 76 54 3.0 8.0 0.00 0.00 0.00 56 1017.0
20260506001334 76 83 3.0 8.0 0.00 0.00 0.00 56 1017.1
20260506000840 76 84 3.0 8.0 0.00 0.00 0.00 56 1017.0
20260506000340 77 121 2.0 6.0 0.00 0.00 0.00 57 1017.0
20260505235840 77 84 2.0 9.0 0.00 0.00 0.00 57 1016.9
20260505235340 77 78 2.0 6.0 0.00 0.00 0.00 56 1016.9
20260505234907 77 79 2.0 6.0 0.00 0.00 0.00 56 1016.8
20260505234348 78 76 3.0 7.0 0.00 0.00 0.00 56 1016.8
20260505233848 78 76 2.0 9.0 0.00 0.00 0.00 55 1016.8
20260505233348 78 74 4.0 10.0 0.00 0.00 0.00 54 1016.7
20260505232825 78 53 5.0 12.0 0.00 0.00 0.00 54 1016.7
20260505232354 78 94 3.0 12.0 0.00 0.00 0.00 54 1016.7
20260505231834 79 71 3.0 8.0 0.00 0.00 0.00 54 1016.6
20260505231343 79 84 2.0 8.0 0.00 0.00 0.00 55 1016.7
20260505230824 79 111 3.0 8.0 0.00 0.00 0.00 54 1016.7
20260505230325 79 66 3.0 9.0 0.00 0.00 0.00 54 1016.7
20260505225854 79 96 2.0 9.0 0.00 0.00 0.00 54 1016.7
20260505225330 80 75 3.0 6.0 0.00 0.00 0.00 54 1016.7
20260505224901 80 72 2.0 8.0 0.00 0.00 0.00 54 1016.8
20260505224342 80 105 3.0 10.0 0.00 0.00 0.00 54 1016.7
20260505223844 80 136 4.0 10.0 0.00 0.00 0.00 54 1016.7
20260505223345 80 138 3.0 10.0 0.00 0.00 0.00 53 1016.7
20260505222847 81 117 4.0 11.0 0.00 0.00 0.00 53 1016.7
20260505222349 81 105 3.0 11.0 0.00 0.00 0.00 54 1016.8
20260505221852 81 73 5.0 9.0 0.00 0.00 0.00 53 1016.8
20260505221333 81 76 5.0 11.0 0.00 0.00 0.00 53 1016.8
20260505220832 81 44 5.0 11.0 0.00 0.00 0.00 53 1016.8
20260505220332 81 88 2.0 12.0 0.00 0.00 0.00 53 1016.8
20260505215831 81 73 5.0 12.0 0.00 0.00 0.00 53 1016.8
20260505215331 81 62 4.0 10.0 0.00 0.00 0.00 53 1016.8
20260505214834 81 71 3.0 11.0 0.00 0.00 0.00 53 1016.8
20260505214336 81 94 6.0 11.0 0.00 0.00 0.00 53 1016.9
20260505213837 82 104 5.0 12.0 0.00 0.00 0.00 52 1016.9
20260505213338 82 80 3.0 12.0 0.00 0.00 0.00 52 1016.8
20260505212841 83 80 6.0 12.0 0.00 0.00 0.00 51 1016.6
20260505212344 83 67 4.0 11.0 0.00 0.00 0.00 51 1016.5
20260505211847 84 142 3.0 11.0 0.00 0.00 0.00 51 1016.4
20260505211349 84 72 3.0 12.0 0.00 0.00 0.00 51 1016.4
20260505210848 85 115 4.0 12.0 0.00 0.00 0.00 49 1016.4
20260505210349 85 76 4.0 11.0 0.00 0.00 0.00 50 1016.3
20260505205827 85 122 4.0 10.0 0.00 0.00 0.00 48 1016.3
20260505205329 85 205 4.0 10.0 0.00 0.00 0.00 49 1016.3
20260505204825 85 71 3.0 11.0 0.00 0.00 0.00 50 1016.4
20260505204355 85 92 4.0 9.0 0.00 0.00 0.00 49 1016.4
20260505203835 85 88 3.0 9.0 0.00 0.00 0.00 50 1016.4
20260505203344 85 83 3.0 9.0 0.00 0.00 0.00 50 1016.4
20260505202823 85 111 5.0 8.0 0.00 0.00 0.00 50 1016.4
20260505202326 85 93 2.0 6.0 0.00 0.00 0.00 50 1016.5
20260505201829 85 76 1.0 4.0 0.00 0.00 0.00 50 1016.5
20260505201332 84 27 1.0 4.0 0.00 0.00 0.00 51 1016.5
20260505200836 84 75 2.0 4.0 0.00 0.00 0.00 50 1016.6
20260505200339 84 36 1.0 4.0 0.00 0.00 0.00 50 1016.7
20260505195839 85 71 0.0 6.0 0.00 0.00 0.00 50 1016.8
20260505195338 84 23 1.0 5.0 0.00 0.00 0.00 50 1016.9
20260505194833 85 64 3.0 5.0 0.00 0.00 0.00 49 1016.9
20260505194332 84 14 1.0 5.0 0.00 0.00 0.00 50 1016.9
20260505193832 84 96 3.0 9.0 0.00 0.00 0.00 50 1017.0
20260505193340 84 90 4.0 9.0 0.00 0.00 0.00 50 1017.0
20260505192837 84 61 2.0 9.0 0.00 0.00 0.00 50 1017.1
20260505192340 85 69 4.0 9.0 0.00 0.00 0.00 49 1017.0
20260505191823 86 76 2.0 8.0 0.00 0.00 0.00 48 1017.0
20260505191325 87 123 2.0 9.0 0.00 0.00 0.00 46 1017.0
20260505190855 89 92 4.0 9.0 0.00 0.00 0.00 45 1017.1
20260505190333 88 57 1.0 5.0 0.00 0.00 0.00 46 1017.2
20260505185903 87 52 2.0 7.0 0.00 0.00 0.00 46 1017.2
20260505185339 88 125 4.0 7.0 0.00 0.00 0.00 46 1017.3
20260505184840 88 74 2.0 6.0 0.00 0.00 0.00 46 1017.4
20260505184342 88 135 3.0 9.0 0.00 0.00 0.00 43 1017.4
20260505183824 88 80 5.0 8.0 0.00 0.00 0.00 44 1017.4
20260505183326 87 86 2.0 5.0 0.00 0.00 0.00 46 1017.4
20260505182823 86 67 0.0 2.0 0.00 0.00 0.00 48 1017.6
20260505182332 85 65 0.0 3.0 0.00 0.00 0.00 47 1017.6
20260505181832 86 55 1.0 3.0 0.00 0.00 0.00 46 1017.5
20260505181332 87 67 0.0 4.0 0.00 0.00 0.00 46 1017.7
20260505180832 88 65 1.0 4.0 0.00 0.00 0.00 45 1017.8
20260505180342 88 83 1.0 3.0 0.00 0.00 0.00 45 1017.8
20260505175844 88 34 1.0 7.0 0.00 0.00 0.00 46 1018.0
20260505175339 88 123 2.0 7.0 0.00 0.00 0.00 44 1018.0
20260505174840 88 33 1.0 3.0 0.00 0.00 0.00 46 1018.0
20260505174339 87 73 2.0 8.0 0.00 0.00 0.00 46 1018.1
20260505173841 87 127 2.0 8.0 0.00 0.00 0.00 47 1018.0
20260505173344 87 15 1.0 8.0 0.00 0.00 0.00 47 1018.0
20260505172845 86 57 3.0 9.0 0.00 0.00 0.00 48 1018.1
20260505172345 86 138 4.0 9.0 0.00 0.00 0.00 49 1018.1
20260505171824 86 74 4.0 8.0 0.00 0.00 0.00 48 1018.1
20260505171325 86 86 2.0 6.0 0.00 0.00 0.00 48 1018.2
20260505170833 85 85 2.0 7.0 0.00 0.00 0.00 49 1018.2
20260505170343 86 117 2.0 6.0 0.00 0.00 0.00 49 1018.3
20260505165823 87 152 1.0 8.0 0.00 0.00 0.00 48 1018.4
20260505165350 87 36 2.0 8.0 0.00 0.00 0.00 50 1018.4
20260505164851 86 49 2.0 9.0 0.00 0.00 0.00 53 1018.5
20260505164332 85 348 1.0 5.0 0.00 0.00 0.00 52 1018.5
20260505163836 83 36 2.0 6.0 0.00 0.00 0.00 54 1018.5
20260505163408 83 46 2.0 6.0 0.00 0.00 0.00 51 1018.5
20260505162845 83 355 1.0 5.0 0.00 0.00 0.00 53 1018.5
20260505162344 84 312 2.0 6.0 0.00 0.00 0.00 52 1018.6
20260505161842 85 42 2.0 6.0 0.00 0.00 0.00 51 1018.5
20260505161340 84 78 2.0 7.0 0.00 0.00 0.00 51 1018.5
20260505160839 84 90 1.0 7.0 0.00 0.00 0.00 52 1018.6
20260505160340 83 94 3.0 9.0 0.00 0.00 0.00 51 1018.5
20260505153339 81 93 2.0 7.0 0.00 0.00 0.00 57 1018.5
20260505152841 81 123 1.0 8.0 0.00 0.00 0.00 58 1018.5
20260505152342 81 59 3.0 9.0 0.00 0.00 0.00 57 1018.4
20260505151823 81 116 3.0 11.0 0.00 0.00 0.00 57 1018.4
20260505151325 81 121 2.0 11.0 0.00 0.00 0.00 57 1018.5
20260505150825 81 130 2.0 10.0 0.00 0.00 0.00 57 1018.6
20260505150326 81 68 4.0 10.0 0.00 0.00 0.00 56 1018.5
20260505140350 77 121 3.0 9.0 0.00 0.00 0.00 70 1018.3